User: anonymous
Location: Turtle Rock Observatory
(36.6913°N, 81.9708°W)
Time: 03:39:15
(UTC-04:00)
Language:

Cosmos 1125 Rocket - Orbit

View from above orbital plane
View from above orbital plane
View from above satellite
View from above satellite

Ground track
Ground track

The orbit data is extracted from the following two-line orbital elements,

1 11511U 79078B   14203.78465668  .00000050  00000-0  26186-4 0  8418
2 11511 074.0376 103.9479 0016687 248.4410 166.4114 14.36429740826359
Epoch (UTC): 22 July 2014 18:49:54
Eccentricity: 0.0016687
inclination: 74.0376°
perigee height: 758 km
apogee height: 782 km
right ascension of ascending node: 103.9479°
argument of perigee: 248.4410°
revolutions per day: 14.36429740
mean anomaly at epoch: 166.4114°
orbit number at epoch: 82635

The dashed part of the orbit path shows where the satellite is in the earth's shadow,  

DLR